Regional Weather Roundup
Issued by NWS Spokane, WA

Home | Current Version | Previous Version | Text Only | Print | Product List | Glossary On
Versions: 1 2 3 4 5 6 7 8 9 10 11 12 13 14 15 16 17 18 19 20 21 22 23 24 25 26 27 28 29 30 31 32 33 34 35 36 37 38 39 40 41 42 43 44 45 46 47 48 49 50
000
NZUS01 KOTX 030910
RWROTX
EASTERN WASHINGTON/NORTHERN IDAHO ROUNDUP
NATIONAL WEATHER SERVICE, SPOKANE WA
200 AM PDT TUE MAY 03 2016

Note: "fair" indicated few or no clouds below 12,000 feet with no
significant weather and/or obstructions to visibility.

...NORTHEAST WASHINGTON AND NORTHERN IDAHO PANHANDLE...

CITY           SKY/WX    TMP DP  RH WIND       PRES   REMARKS
SPOKANE INTL   CLEAR     57  41  55 CALM      30.05S
SPOKANE DOWNTO CLEAR     53  43  68 NE5       30.05F
COEUR D ALENE  CLEAR     50  43  76 NE6       30.05S
DEER PARK      CLEAR     42  38  85 N3        30.06S
SANDPOINT      CLEAR     43  41  93 CALM      30.08R

...SOUTHEAST WASHINGTON AND SOUTHERN IDAHO PANHANDLE...

CITY           SKY/WX    TMP DP  RH WIND       PRES   REMARKS
WALLA WALLA    LGT RAIN  69  29  22 SE14      29.96S
PULLMAN/MOSCOW CLEAR     51  43  74 NE5       30.07F
LEWISTON       CLEAR     59  43  55 CALM      30.03S
LOWELL           N/A     49  44  83 N3        30.12R

...COLUMBIA BASIN...

CITY           SKY/WX    TMP DP  RH WIND       PRES   REMARKS
EPHRATA        CLEAR     55  43  63 NE9       29.99S
MOSES LAKE     CLEAR     54  43  66 N9        29.98F
TRI CITIES     CLEAR     49  44  83 N5        29.95S
HERMISTON      CLEAR     54  37  52 E9        29.93S
PENDLETON      CLEAR     60  28  29 SE6       29.97S

...EAST SLOPES CASCADES...

CITY           SKY/WX    TMP DP  RH WIND       PRES   REMARKS
THE DALLES     PTCLDY    68  42  38 NW10      29.92R
YAKIMA         CLEAR     56  40  55 W8        29.97F
ELLENSBURG     PTCLDY    52  41  66 SE5       30.00F
STAMPEDE PASS  CLEAR     53  32  44 CALM      30.07F
WENATCHEE      CLEAR     59  39  47 N3        30.00S
OMAK           CLEAR     51  39  63 NW3       30.02S

...SOUTHERN BRITISH COLUMBIA...

CITY           SKY/WX    TMP DP  RH WIND       PRES   REMARKS
PENTICTON      CLEAR     54  41  62 VRB2      30.00S
CRANBROOK      CLEAR     52  32  46 W8        30.09S

...WESTERN MONTANA...

CITY           SKY/WX    TMP DP  RH WIND       PRES   REMARKS
MISSOULA       CLEAR     47  36  65 CALM      30.14R

...NEIGHBORING CITIES...

CITY           SKY/WX    TMP DP  RH WIND       PRES   REMARKS
SEATTLE        PTCLDY    63  45  51 S5        29.98S
CALGARY        PTCLDY    48  30  49 N2        30.02S



USA.gov is the U.S. government's official web portal to all federal, state and local government web resources and services.